Flag for Czech Republic Weather past 2 weeks in Brno, Czech Republic

Now
41 °F

Overcast.


Feels Like: 36 °F
Forecast: 34 / 41 °F
Wind: 8 mph from West

Location: Brno / Turany

Current Time: Apr 1, 2015 at 5:26:36 AM

Latest Report: Apr 1, 2015 at 4:00 AM


Visibility: 19 mi

Pressure: 29.67 "Hg

Humidity: 64%

Dew point: 30 °F

Location of BrnoLocation

Historic Weather in Brno — Graph

°F

Brno temperature yesterday

Maximum temperature yesterday: 56 °F (at 3:00 PM)
Minimum temperature yesterday: 33 °F (at 10:00 AM)
Average temperature yesterday: 43 °F

Past Weeks' High & Low Weather Summary

 TemperatureHumidityPressure
High62 °F (Mar 25, 1:00 PM)95% (Mar 27, 1:00 AM)30.55 "Hg (Mar 27, 1:00 AM)
Low28 °F (Mar 23, 5:00 AM)29% (Mar 19, 3:00 PM)29.35 "Hg (Mar 31, 3:00 PM)
Average45 °F63%29.99 "Hg
* Reported Mar 17 3:00 AM — Apr 1 4:00 AM, Brno, Weather by CustomWeather, © 2015

Note: Actual official high and low records may vary slightly from our data, if they occured in-between our weather recording intervals... More about our weather records

Advertising

Brno weather history for previous 24 hours

 ConditionsComfort  
Time TempWeatherWind HumidityBarometerVisibility
4:00 AM
Wed, Apr 1
41 °FOvercast.8 mph64%29.67 "Hg19 mi
3:00 AM43 °FOvercast.9 mph63%29.66 "Hg19 mi
2:00 AM41 °FPassing clouds.7 mph68%29.66 "Hg19 mi
1:00 AM39 °FPassing clouds.3 mph73%29.67 "Hg19 mi
12:00 AM42 °FPassing clouds.10 mph61%29.66 "Hg19 mi
10:00 PM
Tue, Mar 31
43 °FPassing clouds.8 mph70%29.60 "Hg19 mi
9:00 PM46 °FPassing clouds.10 mph65%29.54 "Hg19 mi
8:00 PM49 °FPassing clouds.13 mph59%29.47 "Hg19 mi
7:00 PM50 °FPassing clouds.13 mph61%29.44 "Hg25 mi
6:00 PM51 °FPartly sunny.8 mph67%29.41 "Hg22 mi
5:00 PM51 °FSprinkles. Overcast.15 mph71%29.41 "Hg4 mi
4:00 PM50 °FSprinkles. Overcast.12 mph75%29.38 "Hg6 mi
3:00 PM56 °FOvercast.14 mph60%29.35 "Hg19 mi
2:00 PM49 °FOvercast.6 mph89%29.38 "Hg12 mi
1:00 PM44 °FLight rain. Overcast.3 mph87%29.38 "Hg7 mi
12:00 PM40 °FLight rain. Low clouds.6 mph92%29.44 "Hg16 mi
11:00 AM35 °FLight rain. Low clouds.8 mph93%29.50 "Hg6 mi
10:00 AM33 °FLight snow. Low clouds.5 mph94%29.57 "Hg1 mi
9:00 AM38 °FLight rain. Overcast.8 mph87%29.61 "Hg6 mi
8:00 AM37 °FLight rain. Overcast.2 mph79%29.67 "Hg16 mi
7:00 AM36 °FOvercast.2 mph80%29.72 "Hg19 mi
6:00 AM35 °FOvercast.1 mph81%29.78 "Hg19 mi
Weather by CustomWeather, © 2015

See weather overviewHow to use our weather pages